Weather History for KAUH - July, 2013

Change the Weather History Date:

Thursday, July 18, 2013

  Actual Average Record
Temperature  
Mean Temperature 81 °F -  
Max Temperature 93 °F 88 °F 100 °F (1974)
Min Temperature 69 °F 66 °F 56 °F (1972)
Cooling Degree Days 16    
Growing Degree Days 31 (Base 50)    
Moisture  
Dew Point 65 °F    
Average Humidity 62    
Maximum Humidity 91    
Minimum Humidity 37    
Precipitation  
Precipitation 0.00 in - - ()
Sea Level Pressure  
Sea Level Pressure 30.08 in    
Wind  
Wind Speed 10 mph (SSW)    
Max Wind Speed 17 mph    
Max Gust Speed 25 mph    
Visibility 10 miles    
Events      
Averages and records for this station are not official NWS values.
T = Trace of Precipitation, MM = Missing Value Source: NWS Daily Summary

Daily Weather History Graph

Daily Weather History Graph

Search for Another Location

Airport or City:

Trip Planner

Search our weather history database for the weather conditions in past years. The results will help you decide how hot, cold, wet, or windy it might be!

Date:

Astronomy

Jul. 18, 2013 Rise Set
Actual Time 6:15 AM CDT 9:00 PM CDT
Civil Twilight 5:43 AM CDT 9:32 PM CDT
Nautical Twilight 5:03 AM CDT 10:12 PM CDT
Astronomical Twilight 4:16 AM CDT 10:58 PM CDT
Moon 4:58 PM CDT (7/18) 2:07 AM CDT (7/18)
Length of Visible Light 15h 48m
Length of Day
14h 44m
Waxing Gibbous, 77% of the Moon is Illuminated
Jul 18
Waxing Gibbous
Jul 22
Full
Jul 29
Last Quarter
Aug 6
New
Aug 14
First Quarter

Hourly Weather History & Observations

Time (CDT) Temp. Heat Index Dew Point Humidity Pressure Visibility Wind Dir Wind Speed Gust Speed Precip Events Conditions
12:15 AM 76.1 °F - 64.8 °F 68% 30.20 in 10.0 mi South 8.1 mph - N/A   Clear
12:35 AM 76.1 °F - 64.6 °F 67% 30.20 in 10.0 mi South 10.4 mph - N/A   Clear
12:55 AM 75.9 °F - 64.6 °F 68% 30.20 in 10.0 mi South 9.2 mph - N/A   Clear
1:15 AM 75.6 °F - 64.4 °F 68% 30.19 in 10.0 mi SSW 9.2 mph - N/A   Clear
1:35 AM 74.7 °F - 64.8 °F 71% 30.19 in 10.0 mi SSW 8.1 mph - N/A   Clear
1:55 AM 73.8 °F - 64.9 °F 74% 30.19 in 10.0 mi SSW 8.1 mph - N/A   Clear
2:15 AM 72.7 °F - 65.3 °F 78% 30.18 in 10.0 mi South 8.1 mph - N/A   Clear
2:35 AM 72.5 °F - 65.3 °F 78% 30.18 in 10.0 mi South 6.9 mph - N/A   Clear
2:55 AM 71.8 °F - 65.3 °F 80% 30.19 in 10.0 mi SSW 6.9 mph - N/A   Clear
3:15 AM 72.5 °F - 65.3 °F 78% 30.18 in 10.0 mi South 8.1 mph - N/A   Clear
3:35 AM 72.5 °F - 65.3 °F 78% 30.18 in 10.0 mi South 8.1 mph - N/A   Clear
3:55 AM 71.8 °F - 65.5 °F 80% 30.18 in 10.0 mi South 8.1 mph - N/A   Clear
4:15 AM 71.6 °F - 65.5 °F 81% 30.18 in 10.0 mi SSW 9.2 mph - N/A   Clear
4:35 AM 71.4 °F - 65.5 °F 81% 30.17 in 10.0 mi South 8.1 mph - N/A   Clear
4:55 AM 70.7 °F - 65.5 °F 83% 30.16 in 10.0 mi South 6.9 mph - N/A   Clear
5:15 AM 70.5 °F - 65.7 °F 85% 30.16 in 10.0 mi South 6.9 mph - N/A   Clear
5:35 AM 70.7 °F - 65.8 °F 85% 30.16 in 10.0 mi SSW 8.1 mph - N/A   Clear
5:55 AM 69.3 °F - 65.8 °F 89% 30.16 in 10.0 mi SSW 6.9 mph - N/A   Clear
6:15 AM 69.1 °F - 66.2 °F 91% 30.16 in 10.0 mi SSW 8.1 mph - N/A   Clear
6:35 AM 69.3 °F - 66.2 °F 90% 30.16 in 10.0 mi SSW 8.1 mph - N/A   Clear
6:55 AM 69.8 °F - 66.4 °F 89% 30.16 in 10.0 mi SSW 9.2 mph - N/A   Clear
7:15 AM 70.7 °F - 66.7 °F 87% 30.15 in 10.0 mi SSW 9.2 mph - N/A   Clear
7:35 AM 72.0 °F - 67.1 °F 85% 30.15 in 10.0 mi SSW 9.2 mph - N/A   Clear
7:55 AM 73.0 °F - 67.5 °F 83% 30.15 in 10.0 mi SSW 9.2 mph - N/A   Clear
8:15 AM 73.8 °F - 67.8 °F 82% 30.15 in 10.0 mi SSW 12.7 mph - N/A   Clear
8:35 AM 75.4 °F - 68.2 °F 78% 30.15 in 10.0 mi SSW 11.5 mph - N/A   Clear
8:55 AM 76.8 °F - 67.8 °F 74% 30.15 in 10.0 mi SSW 10.4 mph 18.4 mph N/A   Clear
9:15 AM 77.7 °F - 68.0 °F 72% 30.15 in 10.0 mi SSW 13.8 mph 19.6 mph N/A   Clear
9:35 AM 78.4 °F - 67.8 °F 70% 30.15 in 10.0 mi SSW 15.0 mph - N/A   Clear
9:55 AM 80.1 °F 82.3 °F 67.1 °F 64% 30.13 in 10.0 mi SSW 13.8 mph 18.4 mph N/A   Clear
10:15 AM 81.1 °F 83.7 °F 67.3 °F 63% 30.13 in 10.0 mi SSW 16.1 mph - N/A   Clear
10:35 AM 82.0 °F 84.7 °F 67.3 °F 61% 30.13 in 10.0 mi SSW 12.7 mph - N/A   Clear
10:55 AM 83.1 °F 85.9 °F 67.5 °F 59% 30.12 in 10.0 mi SSW 13.8 mph 19.6 mph N/A   Clear
11:15 AM 84.2 °F 86.8 °F 66.7 °F 56% 30.11 in 10.0 mi SSW 13.8 mph 21.9 mph N/A   Clear
11:35 AM 85.3 °F 87.9 °F 66.9 °F 54% 30.11 in 10.0 mi SSW 11.5 mph 19.6 mph N/A   Clear
11:55 AM 84.9 °F 87.4 °F 66.7 °F 54% 30.11 in 10.0 mi SW 13.8 mph 17.3 mph N/A   Clear
12:15 PM 85.5 °F 87.9 °F 66.4 °F 53% 30.10 in 10.0 mi SW 15.0 mph 19.6 mph N/A   Clear
12:35 PM 86.4 °F 88.7 °F 66.0 °F 51% 30.09 in 10.0 mi SSW 12.7 mph 23.0 mph N/A   Scattered Clouds
12:55 PM 87.1 °F 88.9 °F 65.1 °F 48% 30.08 in 10.0 mi SW 16.1 mph - N/A   Clear
1:15 PM 89.1 °F 91.0 °F 65.1 °F 45% 30.08 in 10.0 mi SSW 15.0 mph 19.6 mph N/A   Scattered Clouds
1:35 PM 89.1 °F 90.6 °F 64.4 °F 44% 30.07 in 10.0 mi South 15.0 mph 23.0 mph N/A   Mostly Cloudy
1:55 PM 89.2 °F 90.9 °F 64.9 °F 44% 30.07 in 10.0 mi SW 15.0 mph 19.6 mph N/A   Mostly Cloudy
2:15 PM 88.2 °F 89.6 °F 64.2 °F 45% 30.06 in 10.0 mi SSW 17.3 mph 25.3 mph N/A   Mostly Cloudy
2:35 PM 91.4 °F 93.2 °F 64.4 °F 41% 30.05 in 10.0 mi SW 16.1 mph 21.9 mph N/A   Scattered Clouds
2:55 PM 90.7 °F 92.4 °F 64.9 °F 42% 30.04 in 10.0 mi SW 16.1 mph 23.0 mph N/A   Scattered Clouds
3:15 PM 91.4 °F 93.2 °F 64.4 °F 41% 30.03 in 10.0 mi SW 15.0 mph 24.2 mph N/A   Scattered Clouds
3:35 PM 91.9 °F 93.3 °F 63.7 °F 39% 30.03 in 10.0 mi SW 13.8 mph 24.2 mph N/A   Scattered Clouds
3:55 PM 91.4 °F 92.8 °F 63.7 °F 40% 30.02 in 10.0 mi SSW 15.0 mph 19.6 mph N/A   Clear
4:15 PM 92.1 °F 93.6 °F 64.2 °F 39% 30.02 in 10.0 mi SW 11.5 mph 20.7 mph N/A   Clear
5:15 PM 93.0 °F 94.2 °F 63.0 °F 37% 29.99 in 10.0 mi South 13.8 mph 19.6 mph N/A   Clear
5:35 PM 92.3 °F 93.4 °F 63.3 °F 38% 29.99 in 10.0 mi South 15.0 mph 18.4 mph N/A   Clear
5:55 PM 92.3 °F 93.4 °F 63.1 °F 38% 29.98 in 10.0 mi South 11.5 mph 19.6 mph N/A   Clear
6:15 PM 92.1 °F 93.2 °F 63.5 °F 38% 29.97 in 10.0 mi South 13.8 mph 19.6 mph N/A   Clear
6:35 PM 91.4 °F 92.4 °F 63.1 °F 39% 29.96 in 10.0 mi South 11.5 mph - N/A   Clear
6:55 PM 91.0 °F 92.6 °F 64.0 °F 41% 29.96 in 10.0 mi South 9.2 mph 16.1 mph N/A   Clear
7:15 PM 90.5 °F 91.4 °F 63.3 °F 40% 29.95 in 10.0 mi South 12.7 mph - N/A   Clear
7:35 PM 89.1 °F 90.6 °F 64.2 °F 44% 29.95 in 10.0 mi South 10.4 mph - N/A   Clear
7:55 PM 88.0 °F 89.3 °F 64.0 °F 45% 29.95 in 10.0 mi South 10.4 mph - N/A   Clear
8:15 PM 86.9 °F 87.8 °F 63.5 °F 45% 29.95 in 10.0 mi South 9.2 mph - N/A   Clear
8:35 PM 84.9 °F 86.1 °F 64.0 °F 49% 29.95 in 10.0 mi South 9.2 mph - N/A   Clear
8:55 PM 82.8 °F 84.5 °F 65.3 °F 55% 29.95 in 10.0 mi South 8.1 mph - N/A   Clear
9:15 PM 81.7 °F 83.3 °F 64.8 °F 56% 29.95 in 10.0 mi South 9.2 mph - N/A   Clear
9:35 PM 80.8 °F 82.4 °F 64.4 °F 57% 29.96 in 10.0 mi South 9.2 mph - N/A   Clear
9:55 PM 79.7 °F - 64.0 °F 59% 29.97 in 10.0 mi South 8.1 mph - N/A   Clear
10:15 PM 79.0 °F - 63.9 °F 60% 29.97 in 10.0 mi South 11.5 mph - N/A   Clear
10:35 PM 79.0 °F - 63.5 °F 59% 29.98 in 10.0 mi South 10.4 mph - N/A   Clear
10:55 PM 78.8 °F - 62.8 °F 58% 29.98 in 10.0 mi South 10.4 mph - N/A   Clear
11:15 PM 78.8 °F - 62.6 °F 57% 29.98 in 10.0 mi South 10.4 mph - N/A   Clear
11:35 PM 78.1 °F - 62.6 °F 59% 29.99 in 10.0 mi South 10.4 mph - N/A   Clear
11:55 PM 77.5 °F - 62.2 °F 59% 29.99 in 10.0 mi South 10.4 mph - N/A   Clear